Regional Weather Roundup
Issued by NWS Newport/Morehead, NC

Home | Current Version | Previous Version | Text Only | Print | Product List | Glossary On
Versions: 1 2 3 4 5 6 7 8 9 10 11 12 13 14 15 16 17 18 19 20 21 22 23 24 25 26 27 28 29 30 31 32 33 34 35 36 37 38 39 40 41 42 43 44 45 46 47 48 49 50
000
ASUS42 KMHX 011113
RWRMHX
WEATHER ROUNDUP FOR EASTERN NORTH CAROLINA
NATIONAL WEATHER SERVICE NEWPORT/MOREHEAD CITY NC
700 AM EDT TUE SEP 01 2015

NOTE: "FAIR" INDICATES FEW OR NO CLOUDS BELOW 12,000 FEET
WITH NO SIGNIFICANT WEATHER AND/OR OBSTRUCTIONS TO VISIBILITY

NCZ015>017-031-032-045>047-102-103-011200-
NORTH COAST

CITY           SKY/WX    TMP DP  RH WIND       PRES   REMARKS
EDENTON        CLOUDY    69  69  99 CALM      30.05S
ELIZABETH CITY MOCLDY    72  72 100 NW3       30.05R
KITTY HAWK     MOSUNNY   74  73  95 CALM      30.02S
MANTEO         PTCLDY    74  73  98 CALM      30.03S

$$

NCZ045>047-081-094-103-104-011200-
CENTRAL COAST

CITY           SKY/WX    TMP DP  RH WIND       PRES   REMARKS
FRISCO         CLOUDY    77  75  93 N6        30.02R
SWANQUARTER    NOT AVBL

$$

NCZ095-097-098-100-101-011200-
SOUTHERN COAST

CITY           SKY/WX    TMP DP  RH WIND       PRES   REMARKS
BEAUFORT       CLOUDY    74  74 100 NW9       30.04S
CEDAR ISLAND   NOT AVBL
JACKSONVILLE   NOT AVBL
PINEY ISLAND   CLOUDY   N/A N/A N/A NW7       30.04R HAZE
WILMINGTON     CLOUDY    72  71  97 NW8       30.07R


$$

NCZ011>013-027>030-043-044-078>080-089-090>093-098-011200-
COASTAL PLAIN

CITY           SKY/WX    TMP DP  RH WIND       PRES   REMARKS
AHOSKIE        DRIZZLE   70  69  98 CALM      30.08R
CLINTON        CLOUDY    72  72 100 CALM      30.09R
ELIZABETHTOWN  CLOUDY    71  71 100 NW5       30.09R FOG
GOLDSBORO      CLOUDY    73  73 100 W2        30.07R
GREENVILLE     LGT RAIN  72  72 100 N3        30.08S
HAVELOCK       CLOUDY    75  73  93 NW7       30.06R
KENANSVILLE      N/A     72  72  98 CALM      30.09R FOG
KINSTON        CLOUDY    73  73 100 CALM      30.08R FOG
NEW BERN       CLOUDY    75  72  90 W3        30.07R
RICHLANDS      CLOUDY    73  68  83 CALM      30.07R
ROCKY MOUNT    CLOUDY    72  70  93 N5        30.08S
WASHINGTON     CLOUDY    72  72  98 NW3       30.06S FOG
WHITEVILLE     FOG       72  71  96 CALM      30.09R VSB 1/2

$$

AMZ130-135-150-152-154-156-158-170-250-252-270-ANZ085-086-088-633-658-670-011200-
MARINE OBSERVATIONS

STATION/POSITION TIME  TEMP    WIND        PRES    WAVE   SWELL
                       AIR SEA DIR/SP/G            HT/PER HT/PER
                 (UTC) (F)     (DEG/KT/KT) (MB)    (FT/S) (FT/S)
CHESAPEAKE LIGHT 1100   75     340/  5/  6 1018.0
64 E VA BEACH    1050   78 78   50/  6/  6 1016.7    2/ 8   2/ 8
DUCK             1000   76 78   50/  3/  4 1016.3
2 E DUCK         1011      78                N/A     2/ 8
OREGON INLET     1000   76 79   30/  5/  7 1016.5
13E OREGON INLT  1100      78                N/A     3/ 8
HATTERAS CG      1000   78 79  340/ 11/ 12 1015.9
DIAMOND BUOY     1050   80 84  330/ 12/ 16 1016.2    4/ 6   3/ 6
CAPE LOOKOUT     1100   76     310/ 10/ 13 1017.0
BEAUFORT LAB     1000   75 78  310/  4/  7 1016.5
30 SE NEW RVR IN 1008   78 81  310/ 12/ 17 1017.7
30 SE NEW RVR IN 1025      81                N/A     4/ 6
27 SE WRIGHTSVLE 1000   74 81  340/ 10/ 12   N/A
5 SE WRIGHTSVLE  1008   75 81  320/  6/ 10 1017.9
225 S CAPE HAT   1050   84 84  240/ 10/ 12 1018.0    4/ 7   3/ 7
41 SE CHARLESTON 1050   81 82  340/  4/  4 1018.1    3/ 8   3/ 8

$$



USA.gov is the U.S. government's official web portal to all federal, state and local government web resources and services.